Regional Weather Roundup
Issued by NWS New Orleans/Baton Rouge, LA

Home | Current Version | Previous Version | Text Only | Print | Product List | Glossary Off
Versions: 1 2 3 4 5 6 7 8 9 10 11 12 13 14 15 16 17 18 19 20 21 22 23 24 25 26 27 28 29 30 31 32 33 34 35 36 37 38 39 40 41 42 43 44 45 46 47 48 49 50

094
ASUS44 KLIX 311801
RWRLIX
NEW ORLEANS REGIONAL WEATHER ROUNDUP
NATIONAL WEATHER SERVICE NEW ORLEANS LA
100 PM CDT THU JUL 31 2014

NOTE: "FAIR" INDICATES FEW OR NO CLOUDS BELOW 12,000 FEET WITH NO
      SIGNIFICANT WEATHER AND/OR OBSTRUCTIONS TO VISIBILITY.
      SKY/WX - SKY CONDITION AND SIGNIFICANT WEATHER.
      TMP - AIR TEMPERATURE.     DP    - DEWPOINT TEMPERATURE.
      RH  - RELATIVE HUMIDITY.   PRES  - PRESSURE.
      HI  - HEAT INDEX.          WCI   - WIND CHILL INDEX.

*  THESE STATIONS ARE NOT NWS OR FAA STATIONS AND ARE NOT UNDER
   NWS QUALITY CONTROL.

LAZ038-040-048-061>063-065>067-069-311900-
SOUTHEAST LOUISIANA

CITY           SKY/WX    TMP DP  RH WIND       PRES   REMARKS
N.O. AUDUBON   NOT AVBL
N.O. INTL ARPT CLOUDY    88  65  46 N9        30.04S
6HR MIN TEMP:  73; 6HR MAX TEMP:  91;

N.O. LAKEFRONT PTSUNNY   85  63  47 N8        30.05S
6HR MIN TEMP:  77; 6HR MAX TEMP:  86;

N.O. DOWNTOWN*   N/A     88  63  42 N3        30.04S
6HR MIN TEMP:  79; 6HR MAX TEMP:  88;

SLIDELL        MOSUNNY   85  61  44 N6        30.04F
6HR MIN TEMP:  66; 6HR MAX TEMP:  85;

BATON ROUGE    MOSUNNY   86  65  49 VRB5      30.04F
6HR MIN TEMP:  70; 6HR MAX TEMP:  87;

BOOTHVILLE     PTSUNNY   85  68  56 N7        30.05S
6HR MIN TEMP:  75; 6HR MAX TEMP:  85;

BELLE CHASSE   PTSUNNY   86  66  51 E8        30.03F
6HR MIN TEMP:  71; 6HR MAX TEMP:  87;

BOGALUSA*        N/A     84  63  48 CALM      30.07F
6HR MIN TEMP:  69; 6HR MAX TEMP:  84;

GALLIANO*      NOT AVBL
NEW ROADS*       N/A     84  66  53 E8        30.03F
6HR MIN TEMP:  70; 6HR MAX TEMP:  85;

GONZALES*        N/A     84  70  62 NE5       30.04S
6HR MIN TEMP:  68; 6HR MAX TEMP:  84;

HAMMOND*       MOSUNNY   88  61  40 N5        30.06F
HOUMA*         PTSUNNY   88  64  45 CALM      30.04S
PORT FOURCHON* PTCLDY    84  64  51 E9        30.06S

$$

MSZ070-080>082-311900-
SOUTHERN MISSISSIPPI

CITY           SKY/WX    TMP DP  RH WIND       PRES   REMARKS
MCCOMB         CLOUDY    81  61  50 VRB3      30.06F
6HR MIN TEMP:  71; 6HR MAX TEMP:  82;

GULFPORT       SUNNY     90  59  35 N8        30.03F
6HR MIN TEMP:  73; 6HR MAX TEMP:  90;

BILOXI         SUNNY     87  58  37 N5        30.03F
6HR MIN TEMP:  69; 6HR MAX TEMP:  87;

PASCAGOULA     SUNNY     87  61  41 N9        30.03F
6HR MIN TEMP:  64; 6HR MAX TEMP:  87;


$$

COASTAL OBSERVATIONS
LAKE AND NEARSHORE STATIONS

STATION/POSITION TIME  TEMP    WIND        PRES    WAVE
                       AIR SEA DIR/SP/G            HT/PER
                 (UTC) (F)     (DEG/KT/KT) (MB)    (FT/S)
PASCAGOULA       1700   84     170/  7/  9 1016.7
WAVELAND YACHT   1700   85      10/  3/  4 1016.6
GRAND ISLE       1700   83 86   40/  3/  4 1018.1
SOUTHWEST PASS   1700   89 85   80/  4/  6 1017.6
NEW CANAL        1700   82 83   30/  7/  8 1017.8
SHELL BEACH      1700   81 81   40/  4/  5 1017.3

OFFSHORE STATIONS

STATION/POSITION TIME  TEMP    WIND        PRES    WAVE
                       AIR SEA DIR/SP/G            HT/PER
                 (UTC) (F)     (DEG/KT/KT) (MB)    (FT/S)
64 S DAUPHIN ISL 1714   82 87   20/  8/ 10 1017.1

$$




USA.gov is the U.S. government's official web portal to all federal, state and local government web resources and services.